This is the latest recevied weather packets stored in our database for station/object K4GDX. If no packets are shown the sender has not sent any weather packets the latest 10 day(s).
| Time | Temp. | Humidity | Pressure | Rain* | Wind** | Luminosity | Snow |
|---|---|---|---|---|---|---|---|
| 1777484564 | 30.56° C | 61% | 1013.3 hPa | 0 mm | - | 703 W/m² | - |
| 1777484264 | 30.56° C | 60% | 1013.4 hPa | 0 mm | - | 515 W/m² | - |
| 1777483964 | 30.56° C | 60% | 1013.6 hPa | 0 mm | - | 508 W/m² | - |
| 1777483664 | 31.11° C | 58% | 1013.5 hPa | 0 mm | - | 1065 W/m² | - |
| 1777483361 | 31.11° C | 58% | 1013.7 hPa | 0 mm | - | 1049 W/m² | - |
| 1777483060 | 31.11° C | 59% | 1013.6 hPa | 0 mm | - | 1020 W/m² | - |
| 1777482760 | 31.11° C | 57% | 1013.7 hPa | 0 mm | - | 984 W/m² | - |
| 1777482463 | 31.11° C | 59% | 1013.7 hPa | 0 mm | - | 969 W/m² | - |
| 1777482161 | 31.11° C | 60% | 1013.7 hPa | 0 mm | - | 962 W/m² | - |
| 1777481861 | 30.56° C | 61% | 1013.8 hPa | 0 mm | - | 942 W/m² | - |
| 1777481558 | 30.56° C | 62% | 1013.9 hPa | 0 mm | - | 912 W/m² | - |
| 1777481259 | 30.56° C | 57% | 1014 hPa | 0 mm | - | 995 W/m² | - |
| 1777480955 | 30.56° C | 60% | 1014.2 hPa | 0 mm | - | 993 W/m² | - |
| 1777480652 | 30.56° C | 59% | 1014.3 hPa | 0 mm | - | 1076 W/m² | - |
| 1777480344 | 30.56° C | 62% | 1014.4 hPa | 0 mm | - | 1169 W/m² | - |
| 1777480045 | 30° C | 62% | 1014.4 hPa | 0 mm | - | 993 W/m² | - |
| 1777479745 | 30° C | 65% | 1014.3 hPa | 0 mm | - | 937 W/m² | - |
| 1777479443 | 29.44° C | 64% | 1014.4 hPa | 0 mm | - | 925 W/m² | - |
| 1777479142 | 29.44° C | 65% | 1014.4 hPa | 0 mm | - | 919 W/m² | - |
| 1777478840 | 29.44° C | 65% | 1014.4 hPa | 0 mm | - | 882 W/m² | - |
| 1777478532 | 28.89° C | 66% | 1014.4 hPa | 0 mm | - | 879 W/m² | - |
| 1777478227 | 28.89° C | 66% | 1014.6 hPa | 0 mm | - | 802 W/m² | - |
| 1777477928 | 28.89° C | 67% | 1014.7 hPa | 0 mm | - | 766 W/m² | - |
| 1777477626 | 28.33° C | 68% | 1014.7 hPa | 0 mm | - | 779 W/m² | - |
| 1777477326 | 28.33° C | 68% | 1014.8 hPa | 0 mm | - | 877 W/m² | - |
* Rain latest hour (hover to see other rain measurements)
** Current wind speed in m/s (hover to see current wind gust speed)